Location: Aufkirchen
(47.9603°N, 11.3653°E)
Time: 10:41:07
(UTC+01:00)

Tiros 1 - Pass Details

Date: 01 December 2020
Orbit: 630 x 663 km, 48.4° (Epoch: 28 January)

Event Time Altitude Azimuth Distance (km) Brightness Sun altitude
Rises 18:44:53 0° 282° (WNW) 2,991 11.8 -22.8°
Reaches altitude 10° 18:47:14 10° 281° (W) 2,075 10.7 -23.2°
Maximum altitude 18:52:01 76° 196° (SSW) 680 7.2 -24.0°
Enters shadow 18:52:26 70° 151° (SSE) 699 7.1 -24.1°
Drops below altitude 10° 18:56:45 10° 112° (ESE) 2,052 - -24.8°
Sets 18:59:05 0° 111° (ESE) 2,955 - -25.2°
